Weather History for Nashua, NH

Change the Weather History Date:

Monday, December 31, 2012

  Actual Average Record
Temperature  
Mean Temperature 26 °F -  
Max Temperature 32 °F 35 °F 61 °F (1965)
Min Temperature 20 °F 12 °F -22 °F (1963)
Degree Days  
Heating Degree Days 39    
Moisture  
Dew Point 16 °F    
Average Humidity 64    
Maximum Humidity 78    
Minimum Humidity 54    
Precipitation  
Precipitation 0.00 in - - ()
Sea Level Pressure  
Sea Level Pressure 29.94 in    
Wind  
Wind Speed 12 mph (WNW)    
Max Wind Speed 26 mph    
Max Gust Speed 58 mph    
Visibility 10 miles    
Events      
Averages and records for this station are not official NWS values.
T = Trace of Precipitation, MM = Missing Value Source: NWS Daily Summary

Daily Weather History Graph

Daily Weather History Graph

Search for Another Location

Airport:

Trip Planner

Search our weather history database for the weather conditions in past years. The results will help you decide how hot, cold, wet, or windy it might be!

Date:

Astronomy

Dec. 31, 2012 Rise Set
Actual Time 7:16 AM EST 4:22 PM EST
Civil Twilight 6:44 AM EST 4:54 PM EST
Nautical Twilight 6:08 AM EST 5:29 PM EST
Astronomical Twilight 5:34 AM EST 6:04 PM EST
Moon 7:55 PM EST (12/31) 8:52 AM EST (12/31)
Length of Visible Light 10h 09m
Length of Day
9h 05m
Waning Gibbous, 90% of the Moon is Illuminated
Dec 31
Waning Gibbous
Jan 4
Last Quarter
Jan 11
New
Jan 18
First Quarter
Jan 26
Full

Hourly Weather History & Observations

Time (EST) Temp. Windchill Dew Point Humidity Pressure Visibility Wind Dir Wind Speed Gust Speed Precip Events Conditions
12:51 AM 20.1 °F 4.2 °F 8.1 °F 60% 29.96 in 10.0 mi NW 20.7 mph 29.9 mph N/A   Clear
1:51 AM 21.0 °F 3.6 °F 10.0 °F 63% 29.95 in 4.0 mi NW 26.5 mph - N/A   Clear
2:51 AM 22.1 °F 5.1 °F 10.0 °F 60% 29.98 in 7.0 mi NW 26.5 mph - N/A   Clear
3:37 AM 23.0 °F 6.3 °F 8.6 °F 54% 29.96 in 10.0 mi NW 26.5 mph 57.5 mph N/A   Clear
3:51 AM 23.0 °F 11.1 °F 10.0 °F 58% 29.99 in 10.0 mi WNW 12.7 mph - N/A   Clear
4:51 AM 22.1 °F - 9.1 °F 58% 29.99 in 10.0 mi Calm Calm - N/A   Clear
5:51 AM 22.1 °F 13.7 °F 10.0 °F 60% 30.01 in 10.0 mi West 6.9 mph - N/A   Clear
6:51 AM 20.1 °F 8.8 °F 10.0 °F 65% 30.02 in 10.0 mi SSW 10.4 mph 20.7 mph N/A   Clear
7:51 AM 21.0 °F 11.4 °F 11.1 °F 66% 30.02 in 10.0 mi WSW 8.1 mph - N/A   Clear
8:51 AM 23.0 °F 14.7 °F 12.0 °F 63% 30.03 in 10.0 mi Variable 6.9 mph - N/A   Overcast
9:51 AM 26.1 °F 20.5 °F 14.0 °F 60% 30.02 in 10.0 mi Variable 4.6 mph - N/A   Overcast
10:51 AM 29.1 °F - 17.1 °F 61% 30.00 in 10.0 mi Calm Calm - N/A   Overcast
11:51 AM 32.0 °F 28.7 °F 20.1 °F 62% 29.96 in 10.0 mi Variable 3.5 mph - N/A   Overcast
12:51 PM 32.9 °F 28.5 °F 21.0 °F 62% 29.94 in 10.0 mi Variable 4.6 mph - N/A   Mostly Cloudy
1:51 PM 32.9 °F 26.7 °F 21.0 °F 62% 29.91 in 10.0 mi Variable 6.9 mph - N/A   Mostly Cloudy
2:51 PM 32.0 °F 24.8 °F 22.1 °F 67% 29.92 in 10.0 mi West 8.1 mph - N/A   Mostly Cloudy
3:51 PM 32.9 °F - 23.0 °F 67% 29.91 in 10.0 mi Calm Calm - N/A   Overcast
4:51 PM 31.1 °F 24.5 °F 21.0 °F 66% 29.89 in 10.0 mi West 6.9 mph - N/A   Clear
5:51 PM 30.0 °F - 21.0 °F 69% 29.86 in 10.0 mi Calm Calm - N/A   Clear
6:51 PM 29.1 °F - 21.0 °F 72% 29.87 in 10.0 mi Calm Calm - N/A   Clear
7:51 PM 27.1 °F - 21.0 °F 78% 29.86 in 10.0 mi Calm Calm - N/A   Clear
8:51 PM 30.0 °F - 20.1 °F 67% 29.82 in 10.0 mi Calm Calm - N/A   Clear
9:51 PM 31.1 °F 25.4 °F 20.1 °F 64% 29.81 in 10.0 mi Variable 5.8 mph - N/A   Partly Cloudy
11:51 PM 31.1 °F - 20.1 °F 64% 29.77 in 10.0 mi Calm Calm - N/A   Overcast